Home   Weather   Edmundston   Past weeks

Flag for Canada Past Weather in Edmundston, New Brunswick, Canada — Yesterday and Last 2 Weeks

Now
15 °F

Cold.


Feels Like: 7 °F
Forecast: N/A
Wind: 5 mph from Northwest

Location: St Leonard

Current Time: Jan 17, 2017 at 5:50:50 pm

Latest Report: Jan 17, 2017 at 5:00 pm


Visibility: N/A

Pressure: 30.32 "Hg

Humidity: 56%

Dew Point: 2 °F

Location of EdmundstonLocation

Past Weather in Edmundston — Graph

°F

Edmundston Temperature Yesterday

Maximum temperature yesterday: 22 °F (at 10:00 pm)
Minimum temperature yesterday: -15 °F (at 2:00 am)
Average temperature yesterday: 4 °F

High & Low Weather Summary for the Past Weeks

 TemperatureHumidityPressure
High41 °F (Jan 11, 1:00 pm)100% (Jan 4, 12:00 pm)30.67 "Hg (Jan 4, 12:00 pm)
Low-15 °F (Jan 16, 2:00 am)45% (Jan 17, 3:00 pm)29.22 "Hg (Jan 5, 2:00 am)
Average12 °F80%30.11 "Hg
* Reported Jan 2 4:00 pm — Jan 17 4:00 pm, Edmundston, Weather by CustomWeather, © 2017

Note: Actual official high and low records may vary slightly from our data, if they occured in-between our weather recording intervals... More about our weather records

Advertising

Edmundston Weather History for the Previous 24 Hours

Scroll right to see more
 ConditionsComfort  
Time TempWeatherWind HumidityBarometerVisibility
4:00 pm
Tue, Jan 17
17 °FCold.3 mph47%30.31 "HgN/A
3:00 pm18 °FCold.8 mph45%30.29 "HgN/A
2:00 pm16 °FCold.8 mph51%30.30 "HgN/A
1:00 pm17 °FCold.7 mph50%30.31 "HgN/A
12:00 pm14 °FCold.9 mph58%30.32 "HgN/A
11:00 am12 °FCold.12 mph63%30.32 "HgN/A
10:00 am12 °FCold.12 mph67%30.31 "HgN/A
9:00 am12 °FCold.12 mph72%30.27 "HgN/A
8:00 am14 °FCold.7 mph77%30.22 "HgN/A
7:00 am18 °FCold.15 mph72%30.19 "HgN/A
6:00 am22 °FCold.12 mph73%30.16 "HgN/A
5:00 am23 °FCold.15 mph71%30.12 "HgN/A
4:00 am24 °FCold.18 mph70%30.09 "HgN/A
3:00 am24 °FCold.12 mph77%30.07 "HgN/A
2:00 am24 °FCold.9 mph94%30.05 "HgN/A
1:00 am23 °FCold.6 mph91%30.04 "HgN/A
12:00 am19 °FCold.3 mph97%30.03 "HgN/A
11:00 pm
Mon, Jan 16
20 °FCold.5 mph90%30.03 "HgN/A
10:00 pm22 °FCold.6 mph89%30.01 "HgN/A
9:00 pm21 °FCold.3 mph81%30.01 "HgN/A
8:00 pm21 °FCold.5 mph75%30.01 "HgN/A
7:00 pm20 °FCold.5 mph73%30.01 "HgN/A
6:00 pm18 °FCold.9 mph71%30.01 "HgN/A
5:00 pm17 °FCold.13 mph71%30.02 "HgN/A
Weather by CustomWeather, © 2017

See weather overviewHow to use our weather pages